Wind_Speed
2 6 3 5 4 5 1 2 3 4 3 3 6 7 6 7 10 11 12 13 14 14 17 18 17 13 7 8 13 14 15 13 14 13 12 10 10 9 9 9 9 9 9 8
5 3 6 3 2 3 3 4 3 4 1 5 6 6 6 7 9 11 12 14 15 15 16 20 20 18 12 2 8 10 11 12 13 11 10 9 8 8 7 8 9 10 10 10
6 8 1 3 3 5 3 5 0 5 5 5 8 8 8 7 8 10 12 12 14 16 17 17 21 21 18 12 4 4 7 8 10 9 8 7 5 3 4 7 9 9 11 11
2 3 2 3 4 4 6 2 1 4 5 4 12 1 9 9 8 10 11 12 13 15 16 18 22 23 22 18 13 8 4 3 4 7 7 7 8 7 5 3 5 6 9 11
5 2 2 4 4 3 6 1 2 4 8 9 10 6 10 9 7 8 10 11 13 14 15 16 22 23 23 23 20 17 13 9 5 2 1 3 5 5 4 4 6 7 7 9
3 1 2 5 2 2 3 4 5 5 7 6 11 9 9 6 9 7 9 10 12 13 14 18 20 22 23 23 23 22 21 19 15 11 8 5 3 4 4 4 6 6 7 7
5 3 3 1 4 3 5 6 4 5 5 1 3 5 8 8 8 8 8 9 10 12 13 14 18 21 22 23 23 21 22 21 20 19 18 16 12 10 8 7 6 7 7 7
4 6 2 2 2 5 4 5 6 6 6 3 4 4 6 8 8 9 9 9 9 11 11 13 17 18 20 21 21 21 21 21 19 19 18 18 18 14 13 12 11 9 9 8
4 4 4 3 2 3 4 4 4 6 10 6 4 5 5 9 9 8 8 8 8 9 10 11 15 16 17 18 20 20 20 20 20 18 17 17 16 16 14 14 13 13 12 11
5 4 1 3 2 1 5 4 4 5 4 8 5 4 3 14 12 10 8 7 7 8 9 10 12 14 15 16 17 18 18 18 18 17 17 16 16 15 14 13 14 14 13 14
5 3 6 3 1 5 2 4 4 3 4 5 9 4 8 10 12 11 9 7 6 6 7 8 11 12 14 15 16 17 17 18 18 17 16 15 15 15 14 14 15 15 14 14
5 5 5 3 4 2 3 4 5 4 1 4 4 3 4 3 10 9 8 6 5 5 5 7 8 10 12 14 15 16 17 17 18 17 15 14 14 14 14 15 15 15 15 15
6 3 4 7 4 3 2 3 2 3 3 8 8 1 2 3 7 7 8 5 4 4 5 6 8 10 12 13 14 15 16 17 17 17 16 15 15 15 15 15 15 15 15 15
3 4 8 8 3 3 3 3 2 5 4 9 9 6 7 4 7 7 6 3 2 4 5 6 8 10 12 13 15 16 15 16 17 16 15 14 15 16 16 16 16 16 15 15
2 5 4 8 6 7 9 9 9 10 10 8 9 5 5 2 6 7 5 3 3 2 4 6 7 11 13 14 16 16 16 17 17 16 15 14 15 16 15 16 16 16 16 16
2 1 4 9 2 6 10 10 8 9 10 10 11 10 4 2 2 5 7 3 2 1 4 6 8 11 13 15 16 17 17 17 17 16 16 16 16 16 16 16 17 16 16 16
2 2 2 2 1 7 10 9 6 0 1 4 6 4 2 3 6 7 7 6 4 3 4 7 9 11 13 14 16 17 18 17 16 16 16 16 18 18 17 17 17 17 16 16
1 2 2 4 4 5 5 3 2 1 1 1 1 1 1 1 3 5 5 6 5 2 5 8 10 11 12 13 14 16 16 16 16 16 17 18 19 20 19 18 17 17 16 16
2 2 3 3 4 5 8 5 4 5 5 5 3 3 5 6 8 11 13 3 0 2 5 8 10 11 12 12 14 15 16 16 16 17 18 19 19 19 18 18 17 17 16 14
3 4 4 2 3 4 7 6 2 2 11 10 2 4 6 8 8 8 9 6 3 1 4 7 9 11 11 11 13 14 14 15 16 18 19 18 18 17 18 17 17 16 15 13
4 5 7 7 6 5 8 5 4 4 4 5 6 11 10 10 11 15 2 4 1 2 5 7 8 9 9 9 11 12 13 13 15 16 16 15 15 15 14 13 12 12 11 12
4 3 5 5 5 7 9 6 5 8 7 10 12 13 14 15 15 13 4 4 3 4 6 6 7 7 7 7 9 11 12 13 14 14 14 13 12 13 12 11 11 11 12 12
4 7 3 4 1 3 5 8 7 8 12 12 10 9 10 10 10 5 3 5 6 6 6 5 6 7 5 7 8 10 11 12 13 12 12 10 11 10 9 10 11 11 11 11
7 6 4 5 6 11 10 12 10 9 8 9 10 11 11 10 9 6 6 7 7 6 6 5 6 7 6 7 8 8 10 11 12 10 10 9 8 9 7 7 8 9 11 11
7 2 7 12 14 13 14 11 6 6 9 11 14 12 11 10 9 8 7 7 7 7 6 6 7 7 8 8 8 9 9 10 10 9 8 7 6 6 6 5 5 7 7 9
10 9 9 10 6 6 11 8 8 10 12 12 12 12 13 10 9 7 6 8 8 8 7 8 7 8 8 8 9 8 8 8 9 8 7 6 7 6 5 5 2 3 5 5
Wind_Direction
175 250 221 47 357 353 15 266 245 94 129 110 118 108 79 60 52 44 39 34 28 24 22 19 13 4 343 212 200 202 198 199 198 202 205 213 221 226 232 234 235 233 235 237
216 247 69 49 5 316 296 274 164 85 154 243 158 118 87 70 63 52 44 39 33 26 27 26 24 23 26 47 192 200 197 197 199 204 208 212 226 231 234 236 240 237 236 237
309 67 86 280 224 243 222 286 331 307 159 242 183 189 167 105 80 68 55 48 44 38 33 31 33 32 34 43 62 183 191 194 197 203 205 209 226 224 234 236 238 238 237 238
359 89 273 229 248 279 267 63 273 193 218 271 204 99 170 140 98 68 57 49 44 39 43 42 40 40 40 41 53 64 92 160 191 200 215 220 233 241 231 229 226 234 234 234
80 150 244 253 25 320 50 39 257 255 261 285 209 253 118 158 120 78 61 52 49 46 41 45 46 47 48 49 52 57 63 66 61 81 265 286 258 273 268 257 265 260 250 246
61 96 298 12 73 5 126 220 233 257 255 247 230 213 154 179 121 112 80 61 52 49 46 45 48 48 51 51 54 55 60 60 57 57 49 34 359 329 317 306 294 278 271 268
157 142 125 291 239 165 224 249 237 206 198 316 84 218 66 102 102 105 92 74 60 52 48 45 43 44 44 44 49 52 52 52 52 54 53 51 51 46 36 8 346 325 308 293
277 184 181 25 329 339 229 306 297 304 325 41 153 243 115 119 119 114 103 89 74 59 52 47 42 41 42 42 42 45 46 47 45 46 46 45 45 44 40 31 28 22 10 348
309 157 121 60 311 299 127 233 9 293 259 269 146 112 143 156 151 141 115 100 80 66 56 50 46 43 40 39 38 38 39 39 36 36 36 35 35 35 32 28 26 20 13 6
30 271 149 111 231 157 280 5 246 197 271 271 185 213 112 180 175 158 151 118 94 74 61 54 47 45 42 39 35 33 32 32 30 28 27 25 25 24 23 22 19 15 9 6
329 245 140 192 327 18 209 222 226 301 274 291 297 82 357 173 174 174 148 122 101 75 63 54 48 43 40 37 32 29 26 23 20 18 17 18 16 14 13 12 10 7 3 2
24 312 266 34 50 305 285 312 287 268 273 248 290 305 357 105 159 170 145 131 104 82 63 55 47 40 36 30 25 19 15 13 10 7 6 8 7 7 6 3 360 358 357 355
4 211 268 170 172 150 33 31 359 301 267 266 275 347 51 147 141 153 151 149 111 80 54 47 36 35 28 21 15 10 4 1 358 355 354 354 357 356 354 351 350 349 348 347
291 284 274 296 10 345 213 196 320 312 274 287 281 360 131 157 166 166 148 170 120 76 57 41 26 17 13 8 4 359 355 353 349 346 345 344 344 343 341 338 338 337 335 335
319 267 303 281 277 267 274 271 269 254 269 269 293 324 338 200 199 190 167 177 163 94 50 28 12 3 360 360 358 354 350 346 344 340 339 338 337 335 334 335 333 330 329 326
13 281 298 280 236 267 274 265 265 268 273 273 278 282 62 75 171 178 200 181 238 356 15 8 2 353 354 352 348 343 341 339 337 336 333 333 332 332 332 330 329 328 327 325
278 277 256 249 317 302 268 244 224 244 234 284 260 57 154 197 222 223 240 206 263 315 359 354 352 349 345 341 337 335 333 332 333 332 331 331 329 327 327 328 328 328 326 324
274 251 267 287 300 243 80 79 87 235 192 240 184 127 18 303 272 283 254 277 286 320 339 346 343 339 335 331 331 330 330 332 332 332 335 333 328 324 324 323 323 323 325 323
246 260 255 271 255 297 168 188 197 226 237 204 222 224 271 277 277 270 238 212 255 341 344 339 334 330 327 331 331 331 330 335 336 339 335 334 332 329 329 329 329 326 323 323
212 259 266 200 268 277 91 115 82 22 267 156 209 277 305 308 283 298 81 159 184 322 336 327 326 324 325 329 333 331 335 338 342 340 334 334 334 332 330 333 333 331 330 333
201 226 237 248 256 284 129 136 168 245 52 148 291 297 290 290 296 299 156 206 192 324 319 325 322 321 325 331 335 336 338 343 339 336 337 339 338 334 334 339 341 351 357 2
242 240 214 233 240 254 144 158 211 19 322 296 299 302 296 292 290 281 246 271 292 305 311 307 311 318 321 330 333 332 336 338 336 340 346 345 353 352 352 360 2 13 20 21
253 228 299 238 35 58 194 260 285 301 293 293 297 304 300 293 292 320 268 269 285 294 294 295 300 307 308 326 331 325 332 335 333 337 341 350 4 359 14 14 16 24 25 27
231 219 248 291 254 262 277 279 286 284 269 283 288 294 288 283 296 278 269 274 281 282 282 284 286 288 299 314 321 319 327 329 326 328 328 341 3 352 14 27 25 32 28 23
277 131 255 263 269 271 268 272 288 263 269 283 281 283 276 274 279 285 284 285 280 276 269 265 278 288 294 302 310 311 321 325 324 322 323 340 342 352 360 14 35 28 35 30
242 234 240 260 291 292 285 296 307 291 283 284 286 284 270 254 283 283 276 286 276 263 258 258 271 278 288 290 300 301 310 314 319 320 325 338 333 348 2 4 14 74 52 41
Height
787 791 786 784 788 785 786 790 793 795 801 801 807 814 817 815 815 816 815 815 814 812 813 811 809 805 801 800 802 805 809 814 817 821 823 825 826 828 829 830 831 832 833 834
792 788 791 793 794 795 794 794 794 803 802 800 810 818 818 818 821 821 820 820 820 818 816 815 813 809 805 803 804 807 809 813 816 819 821 823 824 826 827 828 829 830 831 832
793 794 797 799 798 799 795 797 795 800 803 798 805 815 816 820 820 822 823 824 824 823 821 820 819 816 812 810 809 809 811 813 816 819 821 823 824 825 826 826 827 827 829 830
792 797 800 800 798 797 798 798 801 804 807 804 799 804 814 816 823 826 827 828 828 828 826 825 824 823 820 817 815 814 815 816 818 819 821 822 823 822 822 824 825 825 825 826
805 801 802 802 802 800 808 802 803 804 804 800 804 813 808 812 823 830 832 834 833 833 832 830 829 828 827 825 822 821 820 821 821 822 822 822 823 823 823 824 824 824 824 824
799 800 802 801 804 805 805 806 807 807 804 815 785 801 812 810 815 832 834 837 837 838 837 836 835 833 831 830 829 827 826 826 825 825 824 824 824 825 824 824 824 823 823 823
799 802 802 804 806 806 808 806 807 811 815 801 798 806 814 822 824 831 837 840 841 842 842 842 840 838 837 835 833 832 832 831 830 829 827 827 827 826 826 825 824 824 823 822
802 811 805 805 805 807 801 806 807 817 799 796 805 807 819 826 833 837 840 842 844 845 846 846 845 844 843 841 839 837 836 835 835 833 832 831 830 829 828 828 826 825 824 823
807 805 807 809 806 808 806 810 806 809 794 807 790 822 827 832 837 839 842 844 847 848 849 850 850 848 848 846 845 843 841 840 839 838 836 835 833 832 831 830 829 827 826 824
819 815 808 810 809 808 808 806 811 807 818 808 791 792 797 831 834 838 842 846 849 850 851 852 853 853 852 851 850 849 847 844 843 842 840 839 837 835 834 832 830 829 827 825
824 818 812 811 814 814 810 808 809 811 806 811 806 805 818 820 827 836 839 846 850 853 853 854 855 855 855 854 854 853 852 850 847 845 843 841 840 838 836 834 832 830 828 826
832 825 815 808 821 820 820 818 817 820 811 808 813 814 827 818 826 833 841 850 853 854 855 856 856 857 856 856 856 856 855 853 851 849 846 844 842 839 837 836 834 832 829 827
840 822 818 816 826 823 825 832 828 825 822 822 822 816 831 828 831 838 845 851 854 855 856 857 858 859 859 858 858 858 857 856 854 851 848 846 843 841 839 837 835 833 830 828
848 831 826 818 833 836 829 835 836 839 833 820 816 822 836 838 839 844 848 853 854 856 858 860 860 860 861 860 860 859 859 857 855 852 850 847 845 843 840 838 836 834 831 829
844 836 838 830 833 837 837 835 837 838 833 834 821 832 833 838 842 845 850 854 856 858 860 862 863 863 863 862 861 861 860 858 855 852 850 847 846 844 841 839 836 834 831 829
848 838 845 838 837 840 840 836 837 840 839 836 836 836 840 842 845 850 851 855 858 860 861 863 864 864 863 862 862 862 860 858 856 853 850 848 845 843 840 838 836 833 830 828
852 845 844 829 840 838 831 829 838 842 846 845 841 843 845 848 848 849 850 854 858 861 862 863 864 864 864 863 863 861 860 857 855 852 849 847 845 842 839 837 834 832 829 827
856 854 850 838 838 835 845 843 842 843 847 848 849 849 849 849 850 852 853 854 855 861 862 864 865 865 865 864 862 861 859 856 854 851 849 847 844 841 838 835 833 830 828 825
861 854 848 845 832 822 842 848 847 847 841 849 848 851 851 851 851 850 849 855 858 862 864 864 865 865 864 863 862 860 857 854 852 851 849 846 843 840 836 834 831 829 826 824
864 859 853 844 847 831 835 847 850 851 847 848 853 853 852 852 852 845 849 855 859 861 863 864 864 864 863 862 861 859 856 854 852 851 848 845 842 840 837 834 831 829 825 822
857 854 856 847 844 832 844 850 852 858 851 853 854 853 854 855 853 850 854 857 859 861 863 863 863 862 862 861 860 858 856 854 853 850 847 845 842 840 837 834 831 828 826 823
847 846 848 843 845 846 846 852 856 849 853 853 853 853 853 852 850 849 850 858 859 860 861 861 861 860 860 860 859 857 856 854 852 849 847 845 842 840 837 834 832 829 827 825
859 846 843 842 837 844 846 845 847 850 853 853 853 853 852 850 848 848 853 856 857 858 859 860 860 859 859 859 858 857 855 853 851 849 847 844 843 840 838 836 834 832 830 828
845 850 856 852 844 843 844 843 845 848 852 853 852 852 851 850 849 850 853 854 855 856 857 858 858 857 856 857 857 855 854 853 851 848 847 844 843 841 839 837 836 834 832 830
845 856 851 847 844 843 843 843 846 848 850 850 850 849 850 849 849 849 852 852 854 854 855 856 856 855 855 855 854 854 853 852 850 847 846 844 842 840 839 837 836 835 834 833
843 846 845 840 836 840 841 842 845 847 848 847 846 845 845 848 849 849 851 852 853 853 853 853 853 853 853 853 853 852 852 851 849 847 845 844 842 840 839 838 836 835 834 833